Theta_e
329 329 330 330 330 329 329 329 330 326 320 324 323 325 324 322 319 315 313 315 318 318 317 317 318 319 319 318 319 320 321 322 323 324 324 323 326 328 330 331 333 334 333
328 329 330 329 329 329 329 329 328 327 327 326 325 323 322 321 321 321 321 319 318 319 319 318 318 317 317 317 317 317 318 320 322 322 323 324 325 326 328 329 330 332 333
324 325 326 326 326 325 325 325 325 325 325 324 323 322 321 321 320 320 320 320 319 318 318 318 318 317 317 317 317 317 316 317 318 320 321 322 323 325 326 329 329 329 332
319 320 321 318 317 317 317 317 318 320 320 321 321 321 321 320 320 319 319 319 319 319 318 318 317 317 316 316 316 316 316 315 316 317 319 321 322 323 325 328 328 329 330
315 316 315 315 315 315 315 315 316 316 317 317 317 318 318 318 318 318 318 318 318 318 318 318 317 317 316 315 313 311 310 311 311 313 315 319 320 322 324 326 327 328 328
312 312 312 312 311 311 311 311 310 310 311 311 313 314 314 314 314 313 313 314 315 315 317 316 316 316 315 313 310 308 308 309 311 313 315 318 321 322 324 325 325 324 326
310 310 309 309 309 309 309 309 309 310 310 310 310 310 310 310 310 310 310 309 310 311 313 314 314 313 314 313 313 311 310 310 311 312 313 315 318 321 322 323 324 325 326
308 308 308 308 307 307 307 307 307 307 307 307 307 307 307 307 307 306 306 307 308 309 309 311 312 312 313 313 313 312 311 310 310 313 315 316 317 319 320 321 324 323 322
306 306 305 305 304 304 304 305 306 306 306 306 306 307 307 308 307 306 306 306 307 308 308 308 309 312 313 313 312 312 311 310 310 310 311 313 314 317 320 321 322 320 318
304 304 303 303 304 304 305 305 305 305 305 305 306 306 306 305 305 304 304 303 303 303 303 305 306 308 311 311 311 311 311 310 310 311 315 315 317 318 320 322 318 315 315
303 302 302 303 303 303 303 303 304 304 303 303 303 303 303 303 303 302 301 301 302 303 303 305 305 306 307 307 307 309 309 309 308 307 315 317 319 318 320 317 317 315 318
301 301 301 302 302 302 302 301 301 301 302 303 302 303 301 302 302 302 302 301 301 302 303 303 304 306 308 308 307 307 307 306 305 309 316 317 317 317 318 315 314 315 314
300 300 301 301 301 299 298 301 302 300 300 300 300 299 301 301 301 301 300 300 301 301 303 303 303 305 305 306 306 306 305 304 309 314 316 316 313 313 315 313 318 320 320
298 298 298 299 301 301 299 298 299 300 300 299 299 298 299 299 299 299 299 300 301 303 304 304 303 304 304 305 305 305 304 309 314 315 313 315 312 313 313 315 318 319 318
295 298 299 299 299 300 300 301 301 302 301 300 300 299 298 300 300 298 298 299 299 301 302 304 305 305 305 306 306 304 309 314 314 312 313 315 313 314 317 318 319 319 323
297 298 298 298 299 300 301 302 303 304 304 302 301 300 300 300 301 301 299 298 299 300 300 302 304 305 305 307 306 310 310 314 313 311 313 315 316 318 317 318 319 320 320
297 298 298 299 299 299 301 301 301 305 304 304 303 302 301 300 300 300 298 298 298 299 299 302 304 305 305 308 308 311 309 313 313 313 314 314 316 315 317 318 321 323 323
297 298 297 298 298 300 300 300 301 301 303 305 304 302 301 301 301 300 299 297 297 297 299 300 303 304 305 308 310 311 309 311 313 313 314 316 317 321 321 322 323 323 323
297 297 297 297 297 297 299 301 301 301 301 301 301 302 300 301 301 299 299 298 297 298 300 301 302 304 305 308 310 312 309 309 312 313 313 316 320 322 321 321 322 322 323
298 297 297 298 298 298 299 300 301 301 300 300 300 299 299 300 298 298 298 297 297 298 299 302 304 304 305 307 311 312 312 309 312 312 313 318 322 322 321 321 323 323 321
298 298 298 298 296 296 297 298 299 299 299 299 299 299 299 299 298 297 297 297 297 297 299 302 304 304 305 307 310 312 312 309 311 312 313 319 321 322 321 321 321 321 320
299 298 296 294 295 296 296 298 298 298 298 299 300 300 299 299 298 298 297 297 296 297 299 302 304 304 306 308 309 310 311 309 311 313 316 319 320 321 321 321 321 320 320
298 295 294 295 294 295 295 296 296 297 299 299 300 300 300 299 299 298 297 298 297 298 299 301 303 304 305 307 308 309 311 310 312 314 317 318 319 320 320 321 321 320 320
297 295 295 294 295 294 293 294 294 296 297 299 300 300 300 300 300 299 298 298 298 297 299 300 301 303 304 306 307 308 309 309 311 312 314 316 319 320 321 320 320 320 320
296 296 295 295 295 294 292 291 292 295 296 298 298 299 299 300 301 301 300 300 299 299 299 300 300 302 303 305 306 307 307 308 310 311 313 315 318 320 319 320 320 320 319
296 296 296 295 295 294 293 293 292 293 294 295 296 298 299 300 301 301 301 301 301 300 300 299 301 301 302 304 305 306 306 307 308 310 313 315 317 319 319 319 319 318 317
Wind_Speed
14 14 14 12 12 13 12 11 11 12 12 13 14 16 17 18 18 20 20 18 18 17 17 18 19 20 20 21 22 24 26 26 31 31 29 32 33 32 29 29 26 25 23
8 8 9 8 7 7 8 8 8 10 11 14 16 19 20 20 20 21 21 20 21 22 22 21 22 22 22 23 24 26 27 28 30 34 31 33 32 30 30 29 27 22 23
5 5 5 5 6 6 8 9 11 12 15 17 20 22 23 24 25 25 25 27 27 27 27 26 26 24 25 25 25 26 27 28 29 32 34 31 32 28 29 27 26 22 20
4 2 1 6 9 11 14 16 17 17 18 20 22 24 26 28 30 31 31 32 33 33 33 31 30 30 29 28 27 26 26 28 30 33 35 34 32 29 28 27 25 22 20
3 5 7 8 10 12 15 18 21 24 25 25 26 28 31 33 35 35 36 38 39 39 38 37 36 35 35 33 30 30 31 32 33 34 36 34 33 31 28 27 27 25 24
6 7 10 13 16 20 24 27 30 33 36 35 32 33 35 37 39 41 43 41 42 43 43 42 40 39 38 38 39 38 36 33 35 36 38 36 29 32 30 28 28 31 33
11 12 14 16 18 20 22 23 26 28 30 32 33 34 37 39 40 42 44 45 44 45 44 45 45 44 42 38 35 34 32 32 33 36 40 38 35 31 30 31 29 26 22
15 17 18 20 22 23 25 26 28 30 31 32 33 34 36 38 38 40 41 41 42 43 43 42 43 45 44 41 37 36 34 32 31 35 37 35 34 32 30 30 26 29 23
20 21 22 23 25 26 28 29 29 30 31 32 33 33 34 34 33 34 35 32 33 35 35 39 42 43 41 38 36 39 36 34 33 36 37 37 36 36 30 28 29 24 18
22 22 23 24 25 27 28 29 29 29 29 29 29 29 30 31 31 35 35 37 36 36 37 36 38 38 36 38 37 37 36 35 32 31 31 34 32 32 25 26 20 21 21
23 23 25 25 26 26 26 25 24 26 27 28 30 33 37 34 28 27 26 25 27 28 30 28 28 32 39 41 43 38 36 33 37 37 32 31 29 28 32 27 24 33 25
23 24 24 24 23 22 23 25 28 28 31 33 33 33 25 24 27 24 23 24 24 26 26 29 28 24 21 28 29 32 36 39 38 36 30 24 23 24 30 32 35 35 21
23 23 23 22 21 23 24 29 29 27 29 31 30 30 30 29 28 24 23 25 28 28 23 25 25 21 25 26 31 34 35 33 31 29 25 20 21 22 38 35 23 23 25
22 21 21 25 26 24 22 23 27 27 28 28 29 30 30 29 26 23 20 20 20 13 16 19 23 23 21 22 24 27 28 26 27 25 23 18 23 22 27 28 22 23 21
22 25 25 23 23 23 23 23 22 21 20 22 24 25 28 29 26 24 22 22 21 19 14 10 13 15 18 19 21 21 21 24 25 31 28 18 22 22 17 19 19 19 15
22 22 22 22 22 21 22 22 19 21 20 20 20 20 21 24 24 23 23 19 24 18 15 15 14 14 17 17 18 15 9 16 21 36 26 18 15 17 16 17 19 16 14
20 20 20 19 19 19 20 21 25 22 21 20 22 21 20 22 21 22 21 19 17 25 21 15 12 13 14 14 21 13 5 14 33 28 25 18 12 17 20 19 17 12 12
16 16 17 18 18 17 18 20 23 25 27 26 21 20 20 21 17 16 16 15 16 20 22 14 11 11 13 13 13 13 5 4 33 34 26 12 16 16 20 20 14 12 10
15 15 16 16 15 16 16 17 19 20 20 22 22 21 21 21 15 12 11 13 13 15 17 13 12 11 11 10 8 13 11 5 29 33 33 19 20 17 16 14 12 12 12
13 14 15 15 15 15 14 15 17 18 20 21 20 21 22 20 15 12 7 7 11 13 14 13 12 10 11 9 10 9 10 5 15 34 29 17 12 13 13 11 8 8 10
14 14 14 14 14 14 13 14 15 17 19 19 18 17 17 18 14 11 7 5 8 10 14 10 11 8 9 11 12 5 7 5 9 26 32 9 12 10 11 9 8 8 6
13 14 15 13 14 13 12 12 14 16 17 19 19 16 15 16 17 11 8 5 3 10 14 10 9 11 8 10 11 8 5 8 4 12 21 10 10 9 9 9 7 6 7
13 16 18 18 16 14 14 14 15 16 17 18 19 18 16 15 15 15 9 8 1 6 13 13 9 10 9 10 11 10 8 8 4 6 10 9 8 9 10 9 9 9 8
19 20 21 23 23 22 20 19 17 17 17 17 18 18 17 15 11 11 10 8 7 3 12 16 12 12 9 12 7 8 7 9 7 1 4 6 8 10 11 10 10 10 7
24 25 27 28 29 29 26 24 23 21 20 19 18 17 17 16 13 10 8 6 6 3 3 10 20 18 9 10 12 11 15 13 11 7 8 11 7 10 11 10 10 9 8
28 30 32 32 35 36 37 36 34 31 28 25 22 19 18 17 13 12 9 8 7 4 1 5 7 13 15 12 14 15 17 16 12 11 10 11 7 9 12 12 12 9 7
Wind_Direction
128 141 155 160 167 179 188 195 204 216 233 240 248 244 245 247 251 258 262 259 253 256 259 260 262 266 269 270 272 273 275 277 279 287 285 287 285 284 282 274 275 278 281
126 138 147 155 169 181 189 207 222 237 245 246 245 246 248 249 252 253 254 257 258 255 255 258 261 265 264 268 273 274 274 274 278 283 283 284 286 284 279 280 278 272 271
112 123 134 161 177 204 225 236 243 247 249 250 251 251 254 256 259 259 260 260 259 258 258 259 262 264 264 267 266 269 272 275 276 279 283 283 284 285 285 280 274 271 260
72 79 195 240 250 254 256 258 261 262 261 260 259 259 259 260 261 262 263 263 261 260 260 261 263 263 264 263 265 267 273 277 278 278 278 279 280 286 282 279 272 263 256
356 348 304 296 286 281 277 276 275 273 271 270 269 266 265 264 265 265 263 262 262 263 262 263 264 263 261 257 260 264 268 275 276 275 274 274 276 278 277 278 270 263 262
328 319 310 300 292 287 283 279 276 274 272 272 270 269 267 265 266 263 262 262 262 263 264 263 261 261 259 259 260 262 265 272 274 270 270 272 273 278 276 274 270 273 266
314 305 300 297 293 290 287 284 283 281 280 276 273 271 269 268 268 266 265 264 265 263 262 260 258 257 257 254 258 264 268 277 280 274 265 266 271 274 278 274 266 269 255
305 300 297 293 290 289 287 284 283 281 279 277 276 274 275 273 272 270 268 267 267 266 264 263 262 260 251 250 254 257 263 271 274 272 267 266 269 267 273 270 260 269 246
301 297 294 292 292 292 289 287 284 281 280 279 278 279 278 279 277 275 272 273 269 268 267 263 260 259 251 247 249 250 261 269 276 272 270 268 267 270 261 253 258 250 216
296 292 293 293 290 289 287 286 286 284 285 285 284 282 282 280 274 269 270 270 272 274 272 264 254 254 257 249 248 249 260 266 275 277 272 268 264 260 240 231 232 194 175
294 295 294 293 292 290 290 289 288 287 285 282 279 280 282 285 290 286 282 270 270 271 272 275 272 259 250 247 249 249 256 263 273 275 274 268 260 245 240 236 214 173 216
295 293 293 293 292 289 288 287 289 290 291 292 293 294 288 277 277 274 277 273 267 267 269 266 263 259 243 229 231 243 257 265 263 263 262 249 231 236 226 177 166 165 178
295 294 293 293 292 288 289 294 295 295 297 301 300 297 297 296 290 280 272 266 266 270 265 266 264 257 258 257 256 258 262 253 251 254 241 226 213 180 173 176 186 198 181
291 293 290 290 297 297 297 297 301 304 304 302 300 296 297 296 291 289 284 276 264 269 269 265 258 259 251 247 250 253 246 242 244 237 209 192 173 163 169 183 187 190 185
290 293 300 302 302 302 305 305 307 310 310 306 302 299 295 296 291 279 277 261 264 250 268 259 262 251 253 252 248 245 243 242 223 193 196 190 185 202 202 198 196 187 185
299 301 304 306 308 310 314 317 322 324 323 322 318 311 305 296 296 289 282 276 245 245 257 252 259 258 254 250 246 239 240 226 222 193 205 215 209 209 205 209 202 192 189
300 308 312 312 315 318 323 323 325 327 328 332 333 328 322 313 300 288 283 272 254 243 249 229 252 255 252 247 216 236 233 207 189 197 206 221 220 207 200 200 200 194 193
311 314 315 320 322 322 321 324 326 326 330 332 338 335 334 330 307 294 279 262 249 237 230 226 244 251 248 248 228 220 202 229 193 195 202 222 204 201 199 202 199 200 193
324 325 323 320 316 312 315 321 324 326 328 331 338 344 344 338 334 316 286 252 244 232 220 225 233 251 244 251 227 209 194 209 200 206 215 209 237 198 195 202 201 203 181
338 332 328 325 322 322 323 328 336 337 337 338 345 350 348 351 349 345 328 268 242 232 214 220 225 237 241 234 217 206 177 214 210 214 219 232 208 192 187 194 182 180 182
352 348 347 346 343 342 341 342 346 346 348 352 352 356 358 3 355 351 340 291 246 229 189 208 212 228 225 213 203 207 178 242 208 217 226 243 192 184 186 189 194 202 201
7 7 4 3 1 4 2 360 2 1 2 5 3 2 8 15 10 356 352 347 308 196 186 209 203 188 179 186 178 184 176 225 231 207 214 216 199 188 190 200 202 208 207
33 29 26 26 24 21 19 14 15 14 13 13 13 12 14 20 23 12 7 17 277 181 196 182 187 187 190 175 171 182 174 160 194 196 205 213 201 191 198 202 203 208 209
52 47 43 39 38 34 30 26 25 24 23 18 18 20 19 19 20 24 20 18 21 220 203 194 188 198 205 201 185 186 198 193 171 178 184 202 218 204 199 203 207 211 201
60 57 51 48 44 40 36 32 31 29 26 23 21 20 23 25 27 26 10 5 2 28 205 227 218 194 196 199 198 203 222 210 207 203 185 192 181 206 195 198 205 191 192
63 61 58 54 53 50 47 45 42 38 33 29 26 22 19 21 24 26 31 22 11 349 302 202 223 225 222 224 220 223 225 207 216 221 209 209 189 207 200 203 184 193 202